Tracking 29510 objects as of 16-Sep-2024
HD Live streaming from Space Station
objects crossing your sky now

TITAN 3C TRANSTAGE DEB

Track TITAN 3C TRANSTAGE DEB now!
10-day predictions


NORAD ID: 1668
Int'l Code: 1965-082AF
Perigee: 630.1 km
Apogee: 650.4 km
Inclination: 32.1 °
Period: 97.4 minutes
Semi major axis: 7011 km
RCS: 2.8531 m2 (large)
Launch date: October 15, 1965
Source: United States (US)
Launch site: AIR FORCE EASTERN TEST RANGE (AFETR)

Note: This is SATELLITE DEBRIS
Your satellite tracking list
Your tracking list is empty




NASA's NSSDC Master Catalog

Two Line Element Set (TLE):
1  1668U 65082AF  24258.89280753  .00005501  00000-0  72678-3 0  9999
2  1668  32.0683 119.8253 0014521 147.2297 212.9255 14.78803589144489
Source of the keplerian elements: AFSPC